Погода в Ушмуне

Россия / Забайкальский край     51°40′44″N   118°21′39″E
темп.,
°C
ветер,
м/с
пор.,
м/с
влажн.,
%
обл.,
%
осадки,
мм/ч
давл.,
гПа
погр.,
м
2 июля, сб
сб200:00+15юв11975 0.0 100611
03:00+14ю1197100 0.0 100517
06:00+15ю119599 0.3 100513
09:00+20ююв117689 0.3 1004242
12:00+28ю234126 0.0 10021310
15:00+29зсз124046 0.0 10001216
18:00+30ююз23370 0.0 9991170
21:00+22вюв11732 0.0 100112
3 июля, вс
вс300:00+17ююв11881 0.0 100211
03:00+16ссз00895 0.0 100211
06:00+16в1187100 0.0 100211
09:00+25ююв225386 0.0 1001373
12:00+31ююв332981 0.0 9991793
15:00+33ю232695 0.0 9982664
18:00+21з4674100 0.8 1000288
21:00+18ююв2391100 2.4 100081
4 июля, пн
пн400:00+16юз1190100 0.4 99911
03:00+16с2193100 1.2 100018
06:00+16св1194100 0.8 100012
09:00+20юв1287100 1.3 999152
12:00+27юв244897 0.0 998783
15:00+29юв4541100 0.0 9961354
18:00+30з4438100 0.0 9951472
21:00+18ссз1196100 10.3 99928
5 июля, вт
вт500:00+17вюв1197100 0.5 100031
03:00+17юв119885 1.4 99913
06:00+17в1198100 0.2 99937
09:00+19вюв1192100 0.2 1000228
12:00+23ююв238171 2.6 999657
15:00+29ююз364682 3.2 9971947
18:00+21ю12795 0.4 998112
21:00+21св11785 0.4 99811
6 июля, ср
ср600:00+17св0093100 0.2 99911
03:00+16вюв1197100 1.7 99911
06:00+17в1198100 0.3 99938
09:00+18в1195100 1.6 999186
12:00+18ююв3891100 5.6 998242
15:00+16ю2597100 15.4 998224
18:00+18ююв0189100 0.6 996269
21:00+16ссв0094100 1.2 99611